DW8618 Nerja ES current weather conditions

sailwx.info

Wind from 338

Air temperature 15.0° C
Dewpoint 10.6° C

Last reported at 2014-Nov-27 00:45 UTC.
Time now 2014-Nov-27 01:45 UTC

Location: N 36°46' W 003°52'.
View on Google Maps.

See reports from other nearby stations

  
Tides and Currents Weather Stations Pressure Air Temp Water Temp Dewpoint Dewpoint Depression Visibility Wind Speed Wind Dir Waves Ship Positions
date/time (UTC)wind fromknots sea level pressurealtimeterstation pressurevisibilityair tempwater tempwave heightnotes
2014-Nov-27 00:45 338 15.0
2014-Nov-27 00:30 338 15.0
2014-Nov-27 00:15 338 14.4
2014-Nov-27 00:01 338 14.4
2014-Nov-26 23:45 335 1 gusting 4 13.9
2014-Nov-26 23:30 331 3 gusting 4 13.9
2014-Nov-26 23:15 331 2 gusting 3 13.9
2014-Nov-26 23:01 331 13.9
2014-Nov-26 22:45 331 0 gusting 3 13.9
2014-Nov-26 22:30 331 13.9
2014-Nov-26 22:16 331 1 gusting 3 13.9
2014-Nov-26 22:01 330 13.9
2014-Nov-26 21:45 329 1 gusting 3 13.9
2014-Nov-26 21:31 328 13.9
2014-Nov-26 21:15 327 14.4
2014-Nov-26 21:01 327 14.4
2014-Nov-26 20:45 327 14.4
2014-Nov-26 20:30 327 15.0
2014-Nov-26 20:15 327 14.4
2014-Nov-26 20:01 327 14.4
2014-Nov-26 19:45 327 0 gusting 3 15.0
2014-Nov-26 19:31 327 15.0
2014-Nov-26 19:15 327 15.0
2014-Nov-26 18:45 327 15.0
2014-Nov-26 18:30 327 15.0
2014-Nov-26 18:15 321 15.6
2014-Nov-26 18:01 319 1 gusting 4 15.6
2014-Nov-26 17:45 304 15.6
2014-Nov-26 17:30 304 16.1
2014-Nov-26 17:15 270 16.7
2014-Nov-26 17:01 249 17.2
2014-Nov-26 16:45 249 17.2
2014-Nov-26 16:31 249 0 gusting 3 17.2
2014-Nov-26 16:15 246 17.8
2014-Nov-26 16:01 244 0 gusting 4 17.8
2014-Nov-26 15:45 245 17.2
2014-Nov-26 15:30 244 17.2
2014-Nov-26 15:16 225 0 gusting 4 17.2
2014-Nov-26 15:01 217 1 gusting 6 17.8
2014-Nov-26 14:45 219 0 gusting 3 17.8
2014-Nov-26 14:30 201 0 gusting 7 18.3
2014-Nov-26 14:15 219 1 gusting 8 18.3
2014-Nov-26 14:01 271 0 gusting 7 18.3
2014-Nov-26 13:45 230 1 gusting 8 18.9
2014-Nov-26 13:30 196 0 gusting 6 18.3
2014-Nov-26 13:15 263 3 gusting 9 18.3
2014-Nov-26 13:01 216 1 gusting 7 18.3
2014-Nov-26 12:46 201 2 gusting 7 18.3
2014-Nov-26 12:30 230 2 gusting 8 19.4
2014-Nov-26 12:15 297 3 gusting 10 19.4
2014-Nov-26 12:01 266 5 gusting 12 18.9
2014-Nov-26 11:45 244 5 gusting 14 18.3
2014-Nov-26 11:30 273 5 gusting 13 18.9
2014-Nov-26 11:15 247 5 gusting 11 19.4
2014-Nov-26 11:01 267 1 gusting 9 19.4
2014-Nov-26 10:45 264 2 gusting 8 18.9
2014-Nov-26 10:30 266 2 gusting 8 18.3
2014-Nov-26 10:16 283 17.2
2014-Nov-26 10:01 283 17.2
2014-Nov-26 09:45 283 17.2
2014-Nov-26 09:30 283 16.7
2014-Nov-26 09:15 283 16.1
2014-Nov-26 09:01 283 16.1
2014-Nov-26 08:45 283 15.6
2014-Nov-26 08:30 283 14.4
2014-Nov-26 08:15 283 13.9
2014-Nov-26 08:01 283 13.9
2014-Nov-26 07:45 283 13.3
2014-Nov-26 07:31 283 1 gusting 4 13.3
2014-Nov-26 07:15 283 0 gusting 3 13.3
2014-Nov-26 07:01 283 13.3
2014-Nov-26 06:45 283 0 gusting 3 13.3
2014-Nov-26 06:30 283 13.9
2014-Nov-26 06:15 283 13.9
2014-Nov-26 06:01 283 14.4
2014-Nov-26 05:46 283 15.0
2014-Nov-26 05:30 283 15.0
2014-Nov-26 05:15 283 15.0
2014-Nov-26 05:01 283 15.0
2014-Nov-26 04:45 283 15.0
2014-Nov-26 04:31 283 15.0
2014-Nov-26 04:15 283 2 gusting 4 15.0
2014-Nov-26 04:01 283 0 gusting 4 15.0
2014-Nov-26 03:45 283 1 gusting 3 15.0
2014-Nov-26 03:30 283 15.0
2014-Nov-26 03:15 283 15.6
2014-Nov-26 03:01 283 15.6
2014-Nov-26 02:46 283 15.6
2014-Nov-26 02:30 283 16.1
2014-Nov-26 02:15 283 16.1
2014-Nov-26 02:01 283 15.6
2014-Nov-26 01:45 283 15.6
2014-Nov-26 01:30 283 15.6
2014-Nov-26 01:15 283 15.6
2014-Nov-26 01:01 283 16.1
2014-Nov-26 00:45 283 16.1
2014-Nov-26 00:31 283 16.1
2014-Nov-26 00:15 283 16.1
2014-Nov-26 00:01 283 16.1
2014-Nov-25 23:46 283 16.1
2014-Nov-25 23:30 283 16.1
2014-Nov-25 23:15 283 16.1
2014-Nov-25 23:01 283 16.1
2014-Nov-25 22:45 283 16.1
2014-Nov-25 22:30 283 16.1
2014-Nov-25 22:16 283 15.6
2014-Nov-25 22:01 283 15.6
2014-Nov-25 21:45 283 15.6
2014-Nov-25 21:31 283 16.1
2014-Nov-25 21:15 283 16.1
2014-Nov-25 21:01 283 16.1
2014-Nov-25 20:45 283 16.1
2014-Nov-25 20:30 283 16.1
2014-Nov-25 20:15 283 16.7
2014-Nov-25 20:01 283 16.7
2014-Nov-25 19:46 283 17.2
2014-Nov-25 19:30 283 17.2
2014-Nov-25 19:15 283 17.2
2014-Nov-25 18:45 283 17.2
2014-Nov-25 18:30 283 17.2
2014-Nov-25 18:16 283 17.2
2014-Nov-25 18:01 283 17.2
2014-Nov-25 17:45 283 17.8
2014-Nov-25 17:31 283 17.8
2014-Nov-25 17:15 283 17.8
2014-Nov-25 17:01 283 17.8
2014-Nov-25 16:45 283 18.3
2014-Nov-25 16:30 283 17.8
2014-Nov-25 16:15 283 17.8
2014-Nov-25 16:01 283 17.8
2014-Nov-25 15:45 283 0 gusting 3 17.8
2014-Nov-25 15:30 283 2 gusting 4 18.3
2014-Nov-25 15:16 283 2 gusting 4 18.3
2014-Nov-25 15:01 283 2 gusting 4 18.3
2014-Nov-25 14:45 283 1 gusting 3 18.9
2014-Nov-25 14:30 283 3 gusting 6 18.9
2014-Nov-25 14:15 283 2 gusting 4 19.4
2014-Nov-25 14:01 283 19.4
2014-Nov-25 13:45 283 18.9
2014-Nov-25 13:30 283 2 gusting 5 18.3
2014-Nov-25 13:15 283 18.3
2014-Nov-25 13:01 283 4 gusting 5 18.9
2014-Nov-25 12:45 283 2 gusting 5 18.9
2014-Nov-25 12:30 283 19.4
2014-Nov-25 12:15 283 18.9
2014-Nov-25 12:01 283 3 gusting 6 18.9
2014-Nov-25 11:45 283 2 gusting 4 18.9
2014-Nov-25 11:30 283 19.4
2014-Nov-25 11:16 285 0 gusting 4 20.0
2014-Nov-25 11:01 289 2 gusting 6 19.4
2014-Nov-25 10:45 290 3 gusting 5 18.9
2014-Nov-25 10:30 300 20.0
2014-Nov-25 10:15 300 0 gusting 1 20.0
2014-Nov-25 10:01 300 20.0
2014-Nov-25 09:46 300 20.0
2014-Nov-25 09:30 300 20.0
2014-Nov-25 09:15 300 19.4
2014-Nov-25 09:01 300 19.4
2014-Nov-25 08:45 300 18.3
2014-Nov-25 08:30 300 17.8
2014-Nov-25 08:15 300 16.1
2014-Nov-25 08:01 300 15.0
2014-Nov-25 07:45 300 1 gusting 4 15.0
2014-Nov-25 07:30 300 15.0
2014-Nov-25 07:15 300 1 gusting 5 15.0
2014-Nov-25 07:01 300 15.0
2014-Nov-25 06:45 294 0 gusting 3 15.0
2014-Nov-25 05:45 293 15.0
2014-Nov-25 05:30 293 15.0
2014-Nov-25 05:15 293 15.0
2014-Nov-25 05:01 293 15.0
2014-Nov-25 04:45 293 0 gusting 3 15.0
2014-Nov-25 04:30 293 2 gusting 4 15.0
2014-Nov-25 04:15 293 1 gusting 4 15.0
2014-Nov-25 04:01 293 3 gusting 5 15.0
2014-Nov-25 03:45 293 15.6
2014-Nov-25 03:31 293 15.6
2014-Nov-25 03:15 293 15.6
2014-Nov-25 03:01 293 2 gusting 6 15.6
2014-Nov-25 02:45 275 0 gusting 4 15.6
2014-Nov-25 02:30 269 0 gusting 4 15.6
2014-Nov-25 02:15 260 15.6
2014-Nov-25 02:01 260 1 gusting 4 16.1
2014-Nov-25 01:45 260 16.1
2014-Nov-25 01:31 260 16.1
2014-Nov-25 01:15 260 16.1
2014-Nov-25 01:01 260 16.1